Regional Weather Roundup
Issued by NWS

Home | Current Version | Previous Version | Text Only | Print | Product List | Glossary On
Versions: 1 2 3 4 5 6 7 8 9 10 11 12 13 14 15 16 17 18 19 20 21 22 23 24 25 26 27 28 29 30 31 32 33 34 35 36 37 38 39 40 41 42 43 44 45 46 47 48 49 50
000
ASUS46 KPQR 230810
RWROR

OREGON REGIONAL WEATHER ROUNDUP
NATIONAL WEATHER SERVICE PORTLAND OR
100 AM PDT SAT MAY 23 2015

NOTE: "FAIR" INDICATES FEW OR NO CLOUDS BELOW 12,000 FEET WITH
NO SIGNIFICANT WEATHER AND/OR OBSTRUCTIONS TO VISIBILITY.

ORZ001>013-230900-
NORTHWEST OREGON


CITY           SKY/WX    TMP DP  RH WIND       PRES   REMARKS
ASTORIA        CLOUDY    53  51  93 SW5       30.12R
NEWPORT        DRIZZLE   52  50  93 S3        30.18S
PORTLAND       CLOUDY    56  49  77 NW3       30.12R
VANCOUVER WA   CLOUDY    56  47  71 N5        30.11R
SCAPPOOSE      CLOUDY    56  48  74 N5        30.10R
HILLSBORO      CLOUDY    55  48  77 NW3       30.10S
AURORA         CLOUDY    53  49  86 SW3       30.12R
MCMINNVILLE    CLOUDY    53  49  86 SW6       30.12S
SALEM          CLOUDY    54  48  80 CALM      30.12R
CORVALLIS      CLOUDY    54  46  76 W5        30.15R
EUGENE         CLOUDY    53  47  79 W6        30.15R
$$

ORZ021-028-230900-
SOUTHWEST OREGON


CITY           SKY/WX    TMP DP  RH WIND       PRES   REMARKS
NORTH BEND     CLOUDY    55  48  76 N3        30.18R
BROOKINGS      CLOUDY    51  51 100 CALM      30.13S
ROSEBURG       CLOUDY    55  47  74 CALM      30.14R
SEXTON SUMMIT  FOG       41  41 100 N8        30.10R VSB<1/4
MEDFORD        MOCLDY    51  46  83 CALM      30.10R
$$

ORZ014>016-041-230900-
COLUMBIA GORGE


CITY           SKY/WX    TMP DP  RH WIND       PRES   REMARKS
TROUTDALE      CLOUDY    57  48  72 CALM      30.10R
THE DALLES     CLOUDY    60  47  61 NW15G26   29.98S
$$

ORZ029>031-041-044-049-050-061>064-502-503-505>511-230900-
EASTERN OREGON


CITY           SKY/WX    TMP DP  RH WIND       PRES   REMARKS
REDMOND        LGT RAIN  50  44  80 NW5       30.03R
BEND           CLOUDY    50  45  81 CALM      30.04S
PRINEVILLE     CLOUDY    50  48  93 W8        30.03S
KLAMATH FALLS  CLOUDY    49  42  77 CALM      30.05S
LAKEVIEW       CLOUDY    50  46  87 NW5       30.04S
HERMISTON      LGT RAIN  57  51  80 SW22G29   29.89F
PENDLETON      CLOUDY    56  50  80 CALM      29.94R
JOHN DAY       CLOUDY    54  51  90 W7        29.99R
MEACHAM        CLOUDY    52  51  97 CALM      29.99R
LA GRANDE      CLOUDY    59  46  63 NE7       29.95R
BAKER CITY     LGT RAIN  54  52  93 W8        29.95S
BURNS          MOCLDY    50  46  86 W7        29.97S
ROME             N/A     54  49  83 SE3       29.93F
ONTARIO        MOCLDY    57  52  83 W6        29.90R
$$



USA.gov is the U.S. government's official web portal to all federal, state and local government web resources and services.